NOTE: This page is experimental. Bug reports to carter.barry@gmail.com. Query language is SQLite3.

Prepend rss. to the URL for an RSS feed, csv. to the URL for CSV output.

QUERY: SELECT station_id AS "Code", observation_time AS "Time (GMT)", ROUND(altim_in_hg,2) AS "Pressure (inches)", ROUND(temp_c*1.8+32, 1) AS "Temp. (F)", ROUND(wind_speed_kt*1.15077945) AS "Wind (mph)", (CASE WHEN wind_gust_kt THEN ROUND(wind_gust_kt*1.15077945) ELSE "NA" END) AS "Gust (mph)", DATETIME(observation_time,'-7 hours') AS "Time (MST)" FROM metar WHERE station_id='KABQ' ORDER BY observation_time DESC

To edit query (or if query above is munged), see textbox at bottom of page

Empty result may indicate error: I'm not sure why my error checking code isn't working.

Source code

Code Time (GMT) Pressure (inches) Temp. (F) Wind (mph) Gust (mph) Time (MST)
KABQ 2019-08-24T20:52:00Z 30.08 91.9 6.0 NA 2019-08-24 13:52:00
KABQ 2019-08-24T19:52:00Z 30.11 89.1 0.0 NA 2019-08-24 12:52:00
KABQ 2019-08-24T18:52:00Z 30.14 84.9 0.0 NA 2019-08-24 11:52:00
KABQ 2019-08-24T17:52:00Z 30.17 84.9 0.0 NA 2019-08-24 10:52:00
KABQ 2019-08-24T16:52:00Z 30.18 78.1 6.0 NA 2019-08-24 09:52:00
KABQ 2019-08-24T15:52:00Z 30.18 73.0 5.0 NA 2019-08-24 08:52:00
KABQ 2019-08-24T14:52:00Z 30.17 69.1 5.0 NA 2019-08-24 07:52:00
KABQ 2019-08-24T13:52:00Z 30.16 66.9 3.0 NA 2019-08-24 06:52:00
KABQ 2019-08-24T12:52:00Z 30.15 64.9 6.0 NA 2019-08-24 05:52:00
KABQ 2019-08-24T11:52:00Z 30.13 66.0 3.0 NA 2019-08-24 04:52:00
KABQ 2019-08-24T10:52:00Z 30.11 66.9 7.0 NA 2019-08-24 03:52:00
KABQ 2019-08-24T09:52:00Z 30.11 66.9 8.0 NA 2019-08-24 02:52:00
KABQ 2019-08-24T08:52:00Z 30.1 68.0 7.0 NA 2019-08-24 01:52:00
KABQ 2019-08-24T07:52:00Z 30.1 73.9 5.0 NA 2019-08-24 00:52:00
KABQ 2019-08-24T06:52:00Z 30.09 71.1 7.0 NA 2019-08-23 23:52:00
KABQ 2019-08-24T05:52:00Z 30.09 72.0 8.0 NA 2019-08-23 22:52:00
KABQ 2019-08-24T04:52:00Z 30.09 73.0 6.0 NA 2019-08-23 21:52:00
KABQ 2019-08-24T03:52:00Z 30.07 75.9 8.0 NA 2019-08-23 20:52:00
KABQ 2019-08-24T02:52:00Z 30.06 81.0 12.0 NA 2019-08-23 19:52:00
KABQ 2019-08-24T01:52:00Z 30.03 82.9 15.0 NA 2019-08-23 18:52:00
KABQ 2019-08-24T00:52:00Z 30.01 89.1 9.0 NA 2019-08-23 17:52:00
KABQ 2019-08-23T23:52:00Z 30.02 87.1 26.0 37.0 2019-08-23 16:52:00
KABQ 2019-08-23T22:52:00Z 30.05 87.1 14.0 45.0 2019-08-23 15:52:00
KABQ 2019-08-23T21:52:00Z 30.04 89.1 6.0 NA 2019-08-23 14:52:00

Enter query below (must start w/ SELECT):

Schema Raw SQLite3 db RSS feed for this query